Weather History for Corona, CA

Change the Weather History Date:

Sunday, January 20, 2013

  Actual Average (KONT) Record (KONT)
Temperature  
Mean Temperature 55 °F 55 °F  
Max Temperature 80 °F 65 °F 84 °F (2014)
Min Temperature 30 °F 44 °F 33 °F (2002)
Degree Days  
Heating Degree Days 10 11  
Month to date heating degree days 220  
Since 1 July heating degree days 780  
Cooling Degree Days 0 0  
Month to date cooling degree days 0  
Year to date cooling degree days 0  
Growing Degree Days 5 (Base 50)    
Moisture  
Dew Point 9 °F    
Average Humidity 21    
Maximum Humidity 69    
Minimum Humidity 4    
Precipitation  
Precipitation 0.00 in 0.11 in 1.13 in (2010)
Month to date precipitation 2.44  
Year to date precipitation 2.44  
Since 1 July precipitation 7.10  
Snow  
Snow 0.00 in - - ()
Month to date snowfall  
Year to date snowfall  
Since 1 July snowfall  
Snow Depth -    
Sea Level Pressure  
Sea Level Pressure 30.10 in    
Wind  
Wind Speed 7 mph (ESE)    
Max Wind Speed 14 mph    
Max Gust Speed 17 mph    
Visibility 10 miles    
Events      
T = Trace of Precipitation, MM = Missing Value Source: NWS Daily Summary

Daily Weather History Graph

Daily Weather History Graph

Search for Another Location

Airport:

Trip Planner

Search our weather history database for the weather conditions in past years. The results will help you decide how hot, cold, wet, or windy it might be!

Date:

Astronomy

Jan. 20, 2013 Rise Set
Actual Time 6:53 AM PST 5:09 PM PST
Civil Twilight 6:26 AM PST 5:36 PM PST
Nautical Twilight 5:56 AM PST 6:07 PM PST
Astronomical Twilight 5:26 AM PST 6:36 PM PST
Moon 12:13 PM PST (1/20) 1:31 AM PST (1/20)
Length of Visible Light 11h 09m
Length of Day
10h 16m
Waxing Gibbous, 67% of the Moon is Illuminated
Jan 20
Waxing Gibbous
Jan 26
Full
Feb 3
Last Quarter
Feb 9
New
Feb 17
First Quarter

Hourly Weather History & Observations

Time (PST) Temp. Windchill Dew Point Humidity Pressure Visibility Wind Dir Wind Speed Gust Speed Precip Events Conditions
12:56 AM 51.8 °F - 14.0 °F 22% 30.16 in 10.0 mi East 9.2 mph - N/A   Clear
1:56 AM 48.9 °F - 13.1 °F 24% 30.14 in 10.0 mi ESE 5.8 mph - N/A   Clear
2:56 AM 45.9 °F 42.9 °F 16.2 °F 30% 30.14 in 10.0 mi East 5.8 mph - N/A   Clear
3:56 AM 37.4 °F - 21.2 °F 52% 30.13 in 10.0 mi Calm Calm - N/A   Clear
4:56 AM 34.0 °F - 22.1 °F 62% 30.14 in 10.0 mi Calm Calm - N/A   Clear
5:56 AM 30.0 °F - 21.0 °F 69% 30.14 in 10.0 mi Calm Calm - N/A   Clear
6:56 AM 30.0 °F - 20.1 °F 67% 30.14 in 10.0 mi Calm Calm - N/A   Clear
7:56 AM 41.9 °F 40.0 °F 24.1 °F 49% 30.14 in 10.0 mi Variable 3.5 mph - N/A   Clear
8:56 AM 68.0 °F - 10.0 °F 11% 30.14 in 10.0 mi ESE 8.1 mph - N/A   Clear
9:56 AM 70.9 °F - 7.2 °F 8% 30.14 in 10.0 mi SE 9.2 mph 17.3 mph N/A   Clear
10:56 AM 74.8 °F - 7.2 °F 7% 30.12 in 10.0 mi SSE 8.1 mph - N/A   Clear
11:56 AM 79.0 °F - 3.0 °F 5% 30.08 in 10.0 mi ESE 11.5 mph - N/A   Clear
12:56 PM 80.6 °F - -2.2 °F 4% 30.06 in 10.0 mi East 12.7 mph - N/A   Clear
1:56 PM 79.9 °F - -4.9 °F 4% 30.02 in 10.0 mi ENE 12.7 mph - N/A   Clear
2:56 PM 79.9 °F - -1.8 °F 4% 30.01 in 10.0 mi NE 13.8 mph - N/A   Clear
3:56 PM 78.8 °F - -2.2 °F 4% 30.02 in 10.0 mi ENE 13.8 mph - N/A   Clear
4:56 PM 72.9 °F - 0.1 °F 6% 30.03 in 10.0 mi ENE 10.4 mph - N/A   Clear
5:56 PM 68.9 °F - 2.1 °F 7% 30.05 in 10.0 mi SSE 5.8 mph - N/A   Clear
6:56 PM 68.0 °F - 3.2 °F 8% 30.07 in 10.0 mi SE 8.1 mph - N/A   Clear
7:56 PM 64.9 °F - 6.1 °F 10% 30.08 in 10.0 mi SE 6.9 mph - N/A   Clear
8:56 PM 64.9 °F - 4.1 °F 9% 30.08 in 10.0 mi SSE 5.8 mph - N/A   Clear
9:56 PM 64.4 °F - 5.0 °F 10% 30.10 in 10.0 mi SSE 6.9 mph - N/A   Clear
10:56 PM 63.9 °F - 5.0 °F 10% 30.09 in 10.0 mi SSE 6.9 mph - N/A   Clear
11:56 PM 54.9 °F - 11.1 °F 18% 30.08 in 10.0 mi ESE 8.1 mph - N/A   Clear